User: anonymous   Login
Location: Les Jeannots
(43.2262°N, 5.5774°E)
Time: 06:47:58
(UTC+00:00)
Language:

IRIS - Orbit

View from above orbital plane
View from above orbital plane
View from above satellite
View from above satellite

Ground track
Ground track

The orbit data is extracted from the following two-line orbital elements,

1 22196U 92070D   20273.21031330  .00015258  39063-5  41823-3 0  9993
2 22196  41.1458 201.0171 1544468 131.6228 242.7544 12.42297532112214
Epoch (UTC): 29 September 2020 05:02:51
Eccentricity: 0.1544468
inclination: 41.1458°
perigee height: 280 km
apogee height: 2713 km
right ascension of ascending node: 201.0171°
argument of perigee: 131.6228°
revolutions per day: 12.42297532
mean anomaly at epoch: 242.7544°
orbit number at epoch: 11221

The dashed part of the orbit path shows where the satellite is in the earth's shadow,  

DLR